Flag for United Arab Emirates Weather past 2 weeks in Ras al-Khaimah, Ras al-Khaimah, United Arab Emirates

Now
97 °F

Sunny.


Feels Like: 118 °F
Forecast: 89 / 108 °F
Wind: 7 mph from West

Location: Ras Al Khaimah International Airport

Current Time: Jul 28, 2014 at 7:58:43 PM

Latest Report: Jul 28, 2014 at 7:00 PM


Visibility: 10 mi

Pressure: 29.39 "Hg

Humidity: 60%

Dew point: 81 °F

Location of Ras al-KhaimahLocation

Historic Weather in Ras al-Khaimah — Graph

°F

Ras al-Khaimah temperature yesterday

Maximum temperature yesterday: 111 °F (at 2:00 PM)
Minimum temperature yesterday: 95 °F (at 5:00 AM)
Average temperature yesterday: 101 °F

Past Weeks' High & Low Weather Summary

 TemperatureHumidityPressure
High113 °F (Jul 26, 3:00 PM)84% (Jul 15, 2:00 AM)29.56 "Hg (Jul 15, 2:00 AM)
Low84 °F (Jul 21, 4:00 AM)11% (Jul 25, 12:00 PM)29.33 "Hg (Jul 17, 5:00 PM)
Average98 °F50%29.43 "Hg
* Reported Jul 13 6:00 PM — Jul 28 6:00 PM, Ras al-Khaimah, Weather by CustomWeather, © 2014

Note: Actual official high and low records may vary slightly from our data, if they occured in-between our weather recording intervals... More about our weather records

Advertising

Ras al-Khaimah weather history for previous 24 hours

 ConditionsComfort  
Time TempWeatherWind HumidityBarometerVisibility
6:00 PM
Jul 28
99 °FClear.8 mph57%29.39 "Hg5 mi
5:00 PM100 °FClear.8 mph53%29.39 "Hg5 mi
4:00 PM100 °FPassing clouds.8 mph57%29.39 "HgN/A
3:00 PM100 °FPassing clouds.12 mph57%29.42 "HgN/A
2:00 PM102 °FPassing clouds.10 mph54%29.45 "HgN/A
1:00 PM102 °FPassing clouds.10 mph51%29.45 "HgN/A
12:00 PM108 °FPassing clouds.3 mph26%29.47 "HgN/A
11:00 AM106 °FPassing clouds.8 mph30%29.50 "HgN/A
9:00 AM99 °FSunny.6 mph37%29.50 "Hg10 mi
8:00 AM93 °FSunny.3 mph44%29.53 "Hg10 mi
7:00 AM88 °FSunny.No wind52%29.50 "Hg10 mi
6:00 AM86 °FSunny.2 mph52%29.50 "Hg10 mi
5:00 AM88 °FClear.3 mph49%29.50 "Hg10 mi
4:00 AM88 °FClear.5 mph49%29.50 "Hg10 mi
3:00 AM90 °FClear.3 mph46%29.50 "Hg10 mi
2:00 AM90 °FClear.2 mph46%29.50 "Hg10 mi
1:00 AM91 °FClear.2 mph41%29.50 "Hg10 mi
12:00 AM95 °FClear.2 mph36%29.53 "Hg10 mi
11:00 PM
Jul 27
95 °FClear.6 mph36%29.53 "Hg10 mi
10:00 PM95 °FClear.5 mph39%29.53 "Hg10 mi
9:00 PM97 °FClear.No wind37%29.53 "Hg10 mi
8:00 PM100 °FClear.5 mph31%29.50 "Hg10 mi
7:00 PM104 °FSunny.7 mph29%29.50 "Hg10 mi
Weather by CustomWeather, © 2014

See weather overviewHow to use our weather pages